Location: Jackson Park
(37.2862°N, 79.9123°W)
Time: 20:13:33
(UTC+00:00)

Vanguard 3 - Pass Details

Date: 17 May 2026
Orbit: 507 x 3205 km, 33.4° (Epoch: 31 May)

Event Time Altitude Azimuth Distance (km) Brightness Sun altitude
Rises 17:59:19 0° 238° (WSW) 6,109 11.9 69.8°
Reaches altitude 10° 18:02:56 10° 235° (SW) 5,371 11.8 69.4°
Maximum altitude 18:20:10 65° 159° (SSE) 3,394 11.8 67.3°
Drops below altitude 10° 18:38:50 10° 83° (E) 5,761 11.4 64.6°
Sets 18:42:52 0° 81° (E) 6,554 11.5 64.0°
